Погода в Умани

Погода в Умани : погода сейчас, прогноз погоды и архив. Всё, что Вы хотите узнать о погоде в Умани!

Хотите узнать прогноз погоды в Умани? Тогда Вам сюда: Погода в Умани

Поиск расширенной информации на нашем сайте:

Другие новости

Новости СМИ2

Главная страница сайта

Новости сайта

03.07.2017

Напоминаем, что на нашем специализированном сайте Метеоцентр.Азия вы можете получить высокодетализированные автоматические прогнозы погоды по пунктам России, СНГ и мира в авиационном формате (включающие направление и скорость ветра, видимость, явления погоды, количество и форму облачности, нижнюю и верхнюю границу облачности).


Погода в Умани - сегодня

Время (UTC), дата Ветер
(°,м/с) 
Видим.   Явления Облачность Т
(°С)
Тd
(°С)
f(%) Тe
(°С)
Pmin
(гПа)
dP
(гПа)
Po
(мм)
O2
(г/м3)
Тmin Tmax R s Состояние
почвы
21 19.11.17 тихо ()   10 км    8/8 900 м 
[Sc]
+2.8 +1 88 +3  1011.7  0.6  739  295           
00 20.11.17 310 (СЗ) н/о  дымка  8/0 средняя, верхняя 
[Ac und|Ci ing]
+1 -0.1 92 +2  1011.9  739  297           
03 20.11.17 тихо ()   н/о  дымка  6/0 верхняя 
[Ci fib]
-0.8 -1.7 94 -1  1011.3  -0.8  738  299           
06 20.11.17 тихо ()   4000 м  дымка  8/0 верхняя 
[Ci fib]
-1.5 -2.4 94 -2  1011.8  0.4  739  299  -1.5         
09 20.11.17 340 (С) 10 км    8/0 верхняя 
[Ci fib]
+2 -1 80 +3  1011.5  0.1  739  296           
12 20.11.17 310 (СЗ) 10 км    3/0 верхняя 
[Ci fib]
+4.6 -3 58 +3  1010.2  -1  738  293           
15 20.11.17 тихо ()   10 км    3/0 средняя 
[Ac trans]
+1.8 -1.3 80 +2  1010.6  0.1  738  296           
18 20.11.17 290 (З) н/о    ясно 
+0.6 -2 83 1011.2  0.4  738  297           
21 20.11.17 тихо ()   н/о    3/3 1000 м 
[Sc]
-0.6 -2.1 90 -1  1011.1  -0.2  738  298           
00 21.11.17 290 (З) н/о    9/9 960 м 
[Sc]
+0.2 -1.9 86 +1  1011.3  0.3  738  297           
03 21.11.17 290 (З) н/о    10/10 600 м кучево-дожд. 
[Cb calv]
+0.8 -1.2 86 1011.3  738  297           
06 21.11.17 290 (З) 10 км    10/10 540 м кучево-дожд. 
[Cb calv]
+0.8 -1.2 86 1012.2  0.9  739  297  -1         
09 21.11.17 290 (З) 10 км    10/10 500 м кучево-дожд. 
[Cb calv]
+1.5 -1.7 79 +1  1012.5  0.4  739  296           
12 21.11.17 290 (З) 10 км    10/10 720 м кучево-дожд. 
[Cb calv]
+2.1 -4 64 +1  1012.2  -0.2  739  296           
15 21.11.17 290 (З) 10 км    10/10 500 м кучево-дожд. 
[Cb calv]
+0.8 -3.1 75 -1  1013.3  0.9  740  298           
18 21.11.17 280 (З) н/о    9/9 1020 м 
[Sc]
+0.6 -1.7 85 1013.7  0.4  740  298           
21 21.11.17 290 (З) н/о    3/3 1000 м 
[Sc]
-1.2 -3.4 85 -1  1014.4  0.5  741  300           
00 22.11.17 310 (СЗ) н/о    10/10 570 м кучево-дожд. 
[Cb calv]
-0.4 -2.5 86 1014.9  0.6  741  299           
03 22.11.17 290 (З) н/о    6/4 1000 м средняя 
[Sc|Ac trans]
-1.8 -3.4 89 -1  1015.5  0.4  741  301           
06 22.11.17 280 (З) 10 км    9/9 1050 м 
[Sc]
-0.2 -2.6 84 1015.5  0.2  741  299  -2         
09 22.11.17 290 (З) 10 км    8/8 1000 м 
[Sc]
+2 -2.7 71 +1  1015.9  0.6  742  297           
12 22.11.17 320 (СЗ) 10 км    9/9 1000 м 
[Sc]
+2.3 -3.7 64 +2  1015.9  742  297           
15 22.11.17 340 (С) 10 км  {снег}  8/5 600 м кучево-дожд., средняя 
[Cb calv|Ac und]
+0.8 -3.4 73 1017.3  1.2  743  299           
18 22.11.17 280 (З) н/о  {снег}  ясно 
-0.6 -2.7 86 1018.6  1.2  744  301    +3  0.0     
21 22.11.17 310 (СЗ) н/о    ясно 
-2.8 -4.4 89 -4  1019.7  0.8  744  303           
Время (UTC), дата Ветер
(°,м/с) 
Видим.   Явления Облачность Т
(°С)
Тd
(°С)
f(%) Тe
(°С)
Pmin
(гПа)
dP
(гПа)
Po
(мм)
O2
(г/м3)
Тmin Tmax R s Состояние
почвы

Для получения пояснительной информации подведите курсор к названию столбца.

ПОГОДА в Умани - архив

Всё, что Вы хотите узнать о погоде в Умани - удобно и подробно!

Выберите нужную дату (начиная с 1 января 2015* года) и нажмите кнопку "Найти".
Будут отображены архивные сводки погоды по пункту Умань, начиная с указанной даты.


Отображать данные в формате CSV (для использования в таблицах Excel)


Внимание! Наш архив погоды предназначен исключительно для личного некоммерческого использования в познавательных целях. Если Вам необходимы официальные справки о состоянии погоды (для производственных, юридических, коммерческих и т.п. целей), обращайтесь в органы Росгидромета.

*Примечание: данная дата относится к архиву по метеостанциям СССР (Россия, СНГ, Балтия).
Архив по метеостанциям Зарубежной Европы и Азии (кроме Китая) хранится 10 дней, по другим регионам земного шара (Китай, Африка, Америка, Австралия, Океания) - 1 день.

Умань - район местоположения метеостанции


Название, широта, долгота, высота метеостанции:
Умань 48.8°ш. 30.2°д. 216 м над ур. моря [Украина]

Дополнительная информация

В oтличие oт бoльшинства пoгoдных сайтoв мы публикуем пoдрoбную метеoинфoрмацию в детальнoм прoфессиoнальнoм фoрмате.

Характеристики температуры и влажнoсти вoздуха измеряются на высoте 2 м в тени вдали oт зданий и деревьев.
Скoрoсть ветра измеряется на высoте 10 м (на урoвне рoста челoвека скoрoсть ветра ниже в 1.5-2 раза). Если метеoстанция нахoдится в гoрoде или в лесу, тo скoрoсть ветра занижена на 2-4 м/с пo сравнению с oткрытым местoм. Скoрoсть ветра над акватoриями крупных рек и oзёр, а также на вершинах хoлмoв на 2-5 м/с выше, чем в oбычных услoвиях.
Атмoсфернoе давление в разных тoчках местнoсти мoжет значительнo oтличаться oт давления на метеoстанции, в зависимoсти oт услoвий рельефа (при пoдъёме на 10 м давление пoнижается примернo на 1 мм рт.ст.).